Location: Clarion
(42.7316°N, 93.7330°W)
Time: 08:02:17
(UTC+00:00)

Terra - Pass Details

Date: 22 April 2026
Orbit: 688 x 691 km, 97.9° (Epoch: 17 May)

Event Time Altitude Azimuth Distance (km) Brightness Sun altitude
Exits shadow 03:06:04 18° 195° (SSW) 1,643 3.5 -20.4°
Maximum altitude 03:09:14 46° 261° (W) 930 2.7 -20.8°
Drops below altitude 10° 03:13:45 10° 335° (NNW) 2,148 5.3 -21.4°
Sets 03:16:05 0° 341° (NNW) 3,068 6.1 -21.7°
